Time,TemperatureF,DewpointF,PressureIn,WindDirection,WindDirectionDegrees,WindSpeedMPH,WindSpeedGustMPH,Humidity,HourlyPrecipIn,Conditions,Clouds,dailyrainin,SolarRadiationWatts/m^2,SoftwareType,DateUTC
2013-02-14 00:00:00,36.9,31.3,29.76,WNW,286,9.0,9.0,80,0.00,,,0.01,0,Wunderground v.1.15,2013-02-14 06:00:00,
2013-02-14 00:10:00,36.6,31.3,29.75,West,269,8.0,11.0,81,0.00,,,0.01,0,Wunderground v.1.15,2013-02-14 06:10:00,
2013-02-14 00:20:00,36.4,31.4,29.76,West,276,7.0,9.0,82,0.00,,,0.00,0,Wunderground v.1.15,2013-02-14 06:20:00,
2013-02-14 00:30:00,36.3,31.0,29.76,WNW,288,8.0,9.0,81,0.00,,,0.00,0,Wunderground v.1.15,2013-02-14 06:30:00,
2013-02-14 00:40:00,36.1,31.1,29.76,West,268,9.0,12.0,82,0.00,,,0.00,0,Wunderground v.1.15,2013-02-14 06:40:00,
2013-02-14 00:50:00,35.9,30.9,29.76,West,275,9.0,9.0,82,0.00,,,0.00,0,Wunderground v.1.15,2013-02-14 06:50:00,
2013-02-14 01:00:00,35.9,30.9,29.76,WNW,284,10.0,11.0,82,0.00,,,0.00,0,Wunderground v.1.15,2013-02-14 07:00:00,
2013-02-14 01:10:00,35.6,30.9,29.76,NW,304,8.0,11.0,83,0.00,,,0.00,0,Wunderground v.1.15,2013-02-14 07:10:00,
2013-02-14 01:20:00,35.4,30.8,29.77,West,273,8.0,8.0,83,0.00,,,0.00,0,Wunderground v.1.15,2013-02-14 07:20:00,
2013-02-14 01:30:00,35.2,30.6,29.77,WNW,300,7.0,7.0,83,0.00,,,0.00,0,Wunderground v.1.15,2013-02-14 07:30:00,
2013-02-14 01:40:00,35.2,30.6,29.78,NNW,327,7.0,7.0,83,0.00,,,0.00,0,Wunderground v.1.15,2013-02-14 07:40:00,
2013-02-14 01:50:00,35.1,30.8,29.78,WSW,257,8.0,16.0,84,0.00,,,0.00,0,Wunderground v.1.15,2013-02-14 07:50:00,
2013-02-14 02:00:00,35.4,31.0,29.78,NW,306,9.0,9.0,84,0.00,,,0.00,0,Wunderground v.1.15,2013-02-14 08:00:00,
2013-02-14 02:10:00,35.3,30.7,29.79,NW,314,7.0,10.0,83,0.00,,,0.00,0,Wunderground v.1.15,2013-02-14 08:10:00,
2013-02-14 02:20:00,35.3,30.7,29.80,NW,310,9.0,9.0,83,0.00,,,0.00,0,Wunderground v.1.15,2013-02-14 08:20:00,
2013-02-14 02:30:00,35.4,31.0,29.80,WNW,288,9.0,13.0,84,0.00,,,0.00,0,Wunderground v.1.15,2013-02-14 08:30:00,
2013-02-14 02:40:00,35.7,31.0,29.80,WNW,290,11.0,24.0,83,0.00,,,0.00,0,Wunderground v.1.15,2013-02-14 08:40:00,
2013-02-14 02:50:00,35.9,31.2,29.80,WNW,294,11.0,20.0,83,0.00,,,0.00,0,Wunderground v.1.15,2013-02-14 08:50:00,
2013-02-14 03:00:00,35.9,30.9,29.81,NW,315,10.0,10.0,82,0.00,,,0.00,0,Wunderground v.1.15,2013-02-14 09:00:00,
2013-02-14 03:10:00,35.8,30.8,29.81,WNW,303,11.0,12.0,82,0.00,,,0.00,0,Wunderground v.1.15,2013-02-14 09:10:00,
2013-02-14 03:20:00,35.8,30.8,29.81,NW,323,11.0,11.0,82,0.00,,,0.00,0,Wunderground v.1.15,2013-02-14 09:20:00,
2013-02-14 03:29:00,35.6,30.6,29.82,NW,323,10.0,10.0,82,0.00,,,0.00,0,Wunderground v.1.15,2013-02-14 09:29:00,
2013-02-14 03:40:00,35.6,30.6,29.81,NW,311,10.0,10.0,82,0.00,,,0.00,0,Wunderground v.1.15,2013-02-14 09:40:00,
2013-02-14 03:50:00,35.5,30.8,29.82,NW,324,10.0,13.0,83,0.00,,,0.00,0,Wunderground v.1.15,2013-02-14 09:50:00,
2013-02-14 03:59:00,35.4,30.1,29.82,NNW,327,12.0,16.0,81,0.00,,,0.00,0,Wunderground v.1.15,2013-02-14 09:59:00,
2013-02-14 04:10:00,35.1,29.9,29.82,NW,313,13.0,13.0,81,0.00,,,0.00,0,Wunderground v.1.15,2013-02-14 10:10:00,
2013-02-14 04:20:00,34.8,29.6,29.83,NW,322,16.0,16.0,81,0.00,,,0.00,0,Wunderground v.1.15,2013-02-14 10:20:00,
2013-02-14 04:30:00,34.4,29.5,29.83,NW,326,14.0,14.0,82,0.00,,,0.00,0,Wunderground v.1.15,2013-02-14 10:30:00,
2013-02-14 04:40:00,33.8,29.2,29.84,NNW,340,13.0,14.0,83,0.00,,,0.00,0,Wunderground v.1.15,2013-02-14 10:40:00,
2013-02-14 04:50:00,33.7,29.1,29.84,NW,326,14.0,15.0,83,0.00,,,0.00,0,Wunderground v.1.15,2013-02-14 10:50:00,
2013-02-14 05:00:00,33.7,29.1,29.85,NW,315,14.0,14.0,83,0.00,,,0.00,0,Wunderground v.1.15,2013-02-14 11:00:00,
2013-02-14 05:10:00,33.6,28.7,29.85,NW,316,14.0,20.0,82,0.00,,,0.00,0,Wunderground v.1.15,2013-02-14 11:10:00,
2013-02-14 05:20:00,33.5,28.6,29.86,NNW,332,17.0,17.0,82,0.00,,,0.00,0,Wunderground v.1.15,2013-02-14 11:20:00,
2013-02-14 05:30:00,33.3,28.4,29.86,NNW,347,15.0,15.0,82,0.00,,,0.00,0,Wunderground v.1.15,2013-02-14 11:30:00,
2013-02-14 05:40:00,33.1,27.9,29.87,NW,317,15.0,16.0,81,0.00,,,0.00,0,Wunderground v.1.15,2013-02-14 11:40:00,
2013-02-14 05:50:00,33.0,27.8,29.87,NW,319,19.0,19.0,81,0.00,,,0.00,0,Wunderground v.1.15,2013-02-14 11:50:00,
2013-02-14 06:00:00,32.9,28.0,29.87,NNW,344,15.0,16.0,82,0.00,,,0.00,0,Wunderground v.1.15,2013-02-14 12:00:00,
2013-02-14 06:10:00,32.7,27.8,29.87,NNW,327,11.0,14.0,82,0.00,,,0.00,0,Wunderground v.1.15,2013-02-14 12:10:00,
2013-02-14 06:20:00,32.2,27.6,29.87,NNW,327,10.0,10.0,83,0.00,,,0.00,0,Wunderground v.1.15,2013-02-14 12:20:00,
2013-02-14 06:29:00,31.7,27.4,29.88,NW,313,10.0,13.0,84,0.00,,,0.00,0,Wunderground v.1.15,2013-02-14 12:29:00,
2013-02-14 06:40:00,31.4,27.4,29.89,NW,325,11.0,12.0,85,0.00,,,0.00,0,Wunderground v.1.15,2013-02-14 12:40:00,
2013-02-14 06:50:00,31.5,27.5,29.89,NNW,333,14.0,16.0,85,0.00,,,0.00,0,Wunderground v.1.15,2013-02-14 12:50:00,
2013-02-14 07:00:00,31.8,27.8,29.90,NW,323,13.0,13.0,85,0.00,,,0.00,0,Wunderground v.1.15,2013-02-14 13:00:00,
2013-02-14 07:10:00,32.0,28.3,29.90,NNW,328,12.0,12.0,86,0.00,,,0.00,0,Wunderground v.1.15,2013-02-14 13:10:00,
2013-02-14 07:20:00,32.0,28.0,29.90,NW,326,11.0,12.0,85,0.00,,,0.00,5,Wunderground v.1.15,2013-02-14 13:20:00,
2013-02-14 07:30:00,32.0,28.0,29.91,NNW,341,12.0,12.0,85,0.00,,,0.00,9,Wunderground v.1.15,2013-02-14 13:30:00,
2013-02-14 07:40:00,32.0,28.3,29.92,NW,310,9.0,12.0,86,0.00,,,0.00,18,Wunderground v.1.15,2013-02-14 13:40:00,
2013-02-14 07:50:00,32.0,28.0,29.92,WNW,298,10.0,12.0,85,0.00,,,0.00,23,Wunderground v.1.15,2013-02-14 13:50:00,
2013-02-14 08:00:00,31.9,27.9,29.92,NW,311,9.0,9.0,85,0.00,,,0.00,47,Wunderground v.1.15,2013-02-14 14:00:00,
2013-02-14 08:10:00,31.9,27.9,29.93,NW,321,9.0,9.0,85,0.00,,,0.00,47,Wunderground v.1.15,2013-02-14 14:10:00,
2013-02-14 08:20:00,32.0,28.0,29.94,NW,319,7.0,7.0,85,0.00,,,0.00,63,Wunderground v.1.15,2013-02-14 14:20:00,
2013-02-14 08:30:00,32.0,28.3,29.94,NNE,32,6.0,6.0,86,0.00,,,0.00,67,Wunderground v.1.15,2013-02-14 14:30:00,
2013-02-14 08:40:00,31.9,28.2,29.94,WNW,296,6.0,6.0,86,0.00,,,0.00,132,Wunderground v.1.15,2013-02-14 14:40:00,
2013-02-14 08:50:00,32.6,28.6,29.94,North,5,6.0,6.0,85,0.00,,,0.00,202,Wunderground v.1.15,2013-02-14 14:50:00,
2013-02-14 08:59:00,32.9,28.6,29.94,NW,308,7.0,11.0,84,0.00,,,0.00,244,Wunderground v.1.15,2013-02-14 14:59:00,
2013-02-14 09:10:00,33.4,28.8,29.95,NW,309,8.0,8.0,83,0.00,,,0.00,251,Wunderground v.1.15,2013-02-14 15:10:00,
2013-02-14 09:20:00,34.0,29.1,29.95,WNW,296,8.0,9.0,82,0.00,,,0.00,269,Wunderground v.1.15,2013-02-14 15:20:00,
2013-02-14 09:29:00,33.7,28.8,29.95,WNW,303,7.0,10.0,82,0.00,,,0.00,355,Wunderground v.1.15,2013-02-14 15:29:00,
2013-02-14 09:40:00,34.7,29.5,29.95,West,272,7.0,10.0,81,0.00,,,0.00,192,Wunderground v.1.15,2013-02-14 15:40:00,
2013-02-14 09:50:00,34.6,29.4,29.95,NW,304,8.0,8.0,81,0.00,,,0.00,376,Wunderground v.1.15,2013-02-14 15:50:00,
2013-02-14 09:59:00,35.4,30.1,29.95,WNW,283,8.0,8.0,81,0.00,,,0.00,301,Wunderground v.1.15,2013-02-14 15:59:00,
2013-02-14 10:10:00,35.9,30.0,29.95,West,275,8.0,8.0,79,0.00,,,0.00,225,Wunderground v.1.15,2013-02-14 16:10:00,
2013-02-14 10:20:00,35.8,29.9,29.95,NW,314,8.0,8.0,79,0.00,,,0.00,104,Wunderground v.1.15,2013-02-14 16:20:00,
2013-02-14 10:30:00,35.1,29.9,29.96,WNW,294,7.0,13.0,81,0.00,,,0.00,111,Wunderground v.1.15,2013-02-14 16:30:00,
2013-02-14 10:40:00,35.0,29.8,29.95,West,265,9.0,9.0,81,0.00,,,0.00,121,Wunderground v.1.15,2013-02-14 16:40:00,
2013-02-14 10:50:00,36.0,30.7,29.95,WNW,301,7.0,8.0,81,0.00,,,0.00,510,Wunderground v.1.15,2013-02-14 16:50:00,
2013-02-14 11:00:00,37.5,31.3,29.95,WNW,282,9.0,9.0,78,0.00,,,0.00,290,Wunderground v.1.15,2013-02-14 17:00:00,
2013-02-14 11:10:00,36.9,30.7,29.96,WNW,295,9.0,12.0,78,0.00,,,0.00,153,Wunderground v.1.15,2013-02-14 17:10:00,
2013-02-14 11:20:00,36.9,31.0,29.96,WNW,287,12.0,15.0,79,0.00,,,0.00,279,Wunderground v.1.15,2013-02-14 17:20:00,
2013-02-14 11:30:00,37.3,31.1,29.96,West,270,13.0,17.0,78,0.00,,,0.00,179,Wunderground v.1.15,2013-02-14 17:30:00,
2013-02-14 11:40:00,37.7,31.5,29.96,NW,307,11.0,11.0,78,0.00,,,0.00,290,Wunderground v.1.15,2013-02-14 17:40:00,
2013-02-14 11:50:00,38.3,32.0,29.96,West,281,12.0,14.0,78,0.00,,,0.00,424,Wunderground v.1.15,2013-02-14 17:50:00,
2013-02-14 12:00:00,38.8,31.6,29.96,West,281,14.0,14.0,75,0.00,,,0.00,446,Wunderground v.1.15,2013-02-14 18:00:00,
2013-02-14 12:10:00,38.9,32.0,29.96,NW,309,12.0,12.0,76,0.00,,,0.00,664,Wunderground v.1.15,2013-02-14 18:10:00,
2013-02-14 12:20:00,39.5,31.6,29.95,NNW,333,13.0,13.0,73,0.00,,,0.00,640,Wunderground v.1.15,2013-02-14 18:20:00,
2013-02-14 12:30:00,40.8,31.1,29.95,NW,306,13.0,21.0,68,0.00,,,0.00,779,Wunderground v.1.15,2013-02-14 18:30:00,
2013-02-14 12:40:00,40.0,29.2,29.96,NW,322,15.0,15.0,65,0.00,,,0.00,260,Wunderground v.1.15,2013-02-14 18:40:00,
2013-02-14 12:50:00,39.0,28.6,29.96,NW,315,13.0,14.0,66,0.00,,,0.00,116,Wunderground v.1.15,2013-02-14 18:50:00,
2013-02-14 13:00:00,38.5,28.1,29.96,NW,320,12.0,18.0,66,0.00,,,0.00,60,Wunderground v.1.15,2013-02-14 19:00:00,
2013-02-14 13:10:00,37.5,28.6,29.96,NW,319,14.0,24.0,70,0.00,,,0.00,230,Wunderground v.1.15,2013-02-14 19:10:00,
2013-02-14 13:20:00,38.7,29.4,29.96,NW,320,14.0,19.0,69,0.00,,,0.00,413,Wunderground v.1.15,2013-02-14 19:20:00,
2013-02-14 13:30:00,38.9,28.5,29.96,WNW,300,16.0,16.0,66,0.00,,,0.00,118,Wunderground v.1.15,2013-02-14 19:30:00,
2013-02-14 13:40:00,38.6,27.5,29.96,WNW,283,13.0,13.0,64,0.00,,,0.00,255,Wunderground v.1.15,2013-02-14 19:40:00,
2013-02-14 13:50:00,39.9,28.3,29.96,WNW,302,13.0,13.0,63,0.00,,,0.00,594,Wunderground v.1.15,2013-02-14 19:50:00,
2013-02-14 14:00:00,39.8,27.4,29.97,WNW,289,14.0,14.0,61,0.00,,,0.00,178,Wunderground v.1.15,2013-02-14 20:00:00,
2013-02-14 14:10:00,39.2,27.3,29.98,WNW,294,14.0,17.0,62,0.00,,,0.00,214,Wunderground v.1.15,2013-02-14 20:10:00,
2013-02-14 14:20:00,40.3,28.3,29.98,NW,311,14.0,23.0,62,0.00,,,0.00,606,Wunderground v.1.15,2013-02-14 20:20:00,
2013-02-14 14:30:00,39.7,28.1,29.99,NW,326,14.0,21.0,63,0.00,,,0.00,109,Wunderground v.1.15,2013-02-14 20:30:00,
2013-02-14 14:40:00,39.1,27.9,29.99,NNW,348,15.0,15.0,64,0.00,,,0.00,213,Wunderground v.1.15,2013-02-14 20:40:00,
2013-02-14 14:50:00,37.8,27.8,30.00,NW,309,17.0,17.0,67,0.00,,,0.00,134,Wunderground v.1.15,2013-02-14 20:50:00,
2013-02-14 15:00:00,37.4,28.5,30.00,NW,309,12.0,12.0,70,0.00,,,0.00,241,Wunderground v.1.15,2013-02-14 21:00:00,
2013-02-14 15:10:00,38.0,27.6,30.00,NNW,343,14.0,23.0,66,0.00,,,0.00,114,Wunderground v.1.15,2013-02-14 21:10:00,
2013-02-14 15:20:00,37.6,28.0,30.01,NW,321,18.0,20.0,68,0.00,,,0.00,135,Wunderground v.1.15,2013-02-14 21:20:00,
2013-02-14 15:30:00,37.0,28.5,30.01,NNW,327,16.0,22.0,71,0.00,,,0.00,98,Wunderground v.1.15,2013-02-14 21:30:00,
2013-02-14 15:40:00,36.3,29.5,30.02,NNW,348,15.0,15.0,76,0.00,,,0.00,79,Wunderground v.1.15,2013-02-14 21:40:00,
2013-02-14 15:50:00,35.4,28.6,30.03,NW,317,15.0,15.0,76,0.00,,,0.00,81,Wunderground v.1.15,2013-02-14 21:50:00,
2013-02-14 16:00:00,34.9,28.1,30.04,NNW,336,14.0,14.0,76,0.00,,,0.00,97,Wunderground v.1.15,2013-02-14 22:00:00,
2013-02-14 16:10:00,34.7,27.6,30.05,NW,316,14.0,18.0,75,0.00,,,0.00,77,Wunderground v.1.15,2013-02-14 22:10:00,
2013-02-14 16:20:00,34.4,27.3,30.06,NNW,327,17.0,17.0,75,0.00,,,0.00,72,Wunderground v.1.15,2013-02-14 22:20:00,
2013-02-14 16:30:00,34.0,27.2,30.07,NNW,342,13.0,14.0,76,0.00,,,0.00,95,Wunderground v.1.15,2013-02-14 22:30:00,
2013-02-14 16:40:00,33.5,26.1,30.07,NNW,335,14.0,14.0,74,0.00,,,0.00,51,Wunderground v.1.15,2013-02-14 22:40:00,
2013-02-14 16:50:00,33.2,26.1,30.07,North,360,13.0,13.0,75,0.00,,,0.00,47,Wunderground v.1.15,2013-02-14 22:50:00,
2013-02-14 17:00:00,33.1,26.0,30.08,NNW,341,12.0,12.0,75,0.00,,,0.00,53,Wunderground v.1.15,2013-02-14 23:00:00,
2013-02-14 17:10:00,33.4,26.0,30.08,NNW,338,12.0,12.0,74,0.00,,,0.00,28,Wunderground v.1.15,2013-02-14 23:10:00,
2013-02-14 17:20:00,33.0,26.6,30.09,North,5,12.0,12.0,77,0.00,,,0.00,21,Wunderground v.1.15,2013-02-14 23:20:00,
2013-02-14 17:30:00,32.2,25.8,30.10,NNW,343,12.0,12.0,77,0.00,,,0.00,11,Wunderground v.1.15,2013-02-14 23:30:00,
2013-02-14 17:40:00,31.3,24.9,30.10,NNW,340,11.0,11.0,77,0.00,,,0.00,11,Wunderground v.1.15,2013-02-14 23:40:00,
2013-02-14 17:50:00,30.8,24.7,30.11,North,5,9.0,9.0,78,0.00,,,0.00,0,Wunderground v.1.15,2013-02-14 23:50:00,
2013-02-14 18:00:00,30.6,24.6,30.11,NNW,341,8.0,9.0,78,0.00,,,0.00,0,Wunderground v.1.15,2013-02-15 00:00:00,
2013-02-14 18:10:00,30.4,24.1,30.12,NNW,342,11.0,11.0,77,0.00,,,0.00,0,Wunderground v.1.15,2013-02-15 00:10:00,
2013-02-14 18:20:00,30.2,24.2,30.13,NNW,344,10.0,10.0,78,0.00,,,0.00,0,Wunderground v.1.15,2013-02-15 00:20:00,
2013-02-14 18:30:00,30.0,24.0,30.13,North,355,11.0,15.0,78,0.00,,,0.00,0,Wunderground v.1.15,2013-02-15 00:30:00,
2013-02-14 18:40:00,29.9,23.9,30.13,North,5,11.0,11.0,78,0.00,,,0.00,0,Wunderground v.1.15,2013-02-15 00:40:00,
2013-02-14 18:50:00,29.6,22.6,30.14,NNW,342,14.0,14.0,75,0.00,,,0.00,0,Wunderground v.1.15,2013-02-15 00:50:00,
2013-02-14 19:00:00,29.1,21.2,30.15,NNW,342,12.0,15.0,72,0.00,,,0.00,0,Wunderground v.1.15,2013-02-15 01:00:00,
2013-02-14 19:10:00,28.4,18.5,30.16,NNW,346,11.0,11.0,66,0.00,,,0.00,0,Wunderground v.1.15,2013-02-15 01:10:00,
2013-02-14 19:19:00,27.7,17.8,30.16,North,9,11.0,11.0,66,0.00,,,0.00,0,Wunderground v.1.15,2013-02-15 01:19:00,
2013-02-14 19:30:00,27.1,18.6,30.17,NNE,13,10.0,10.0,70,0.00,,,0.00,0,Wunderground v.1.15,2013-02-15 01:30:00,
2013-02-14 19:40:00,26.7,18.6,30.17,NNW,334,11.0,13.0,71,0.00,,,0.00,0,Wunderground v.1.15,2013-02-15 01:40:00,
2013-02-14 19:49:00,26.3,18.2,30.18,NE,38,10.0,11.0,71,0.00,,,0.00,0,Wunderground v.1.15,2013-02-15 01:49:00,
2013-02-14 20:00:00,25.9,17.1,30.18,North,350,11.0,11.0,69,0.00,,,0.00,0,Wunderground v.1.15,2013-02-15 02:00:00,
2013-02-14 20:10:00,25.4,16.3,30.19,North,355,10.0,11.0,68,0.00,,,0.00,0,Wunderground v.1.15,2013-02-15 02:10:00,
2013-02-14 20:20:00,24.8,16.7,30.19,North,350,8.0,8.0,71,0.00,,,0.00,0,Wunderground v.1.15,2013-02-15 02:20:00,
2013-02-14 20:30:00,24.7,17.9,30.20,NNW,345,9.0,15.0,75,0.00,,,0.00,0,Wunderground v.1.15,2013-02-15 02:30:00,
2013-02-14 20:40:00,24.2,15.5,30.20,NNW,347,13.0,13.0,69,0.00,,,0.00,0,Wunderground v.1.15,2013-02-15 02:40:00,
2013-02-14 20:50:00,23.7,15.3,30.21,NNW,344,10.0,11.0,70,0.00,,,0.00,0,Wunderground v.1.15,2013-02-15 02:50:00,
2013-02-14 21:00:00,23.7,14.7,30.22,NNE,14,13.0,13.0,68,0.00,,,0.00,0,Wunderground v.1.15,2013-02-15 03:00:00,
2013-02-14 21:10:00,23.6,15.2,30.22,NNW,334,12.0,18.0,70,0.00,,,0.00,0,Wunderground v.1.15,2013-02-15 03:10:00,
2013-02-14 21:20:00,23.4,15.4,30.23,North,5,13.0,13.0,71,0.00,,,0.00,0,Wunderground v.1.15,2013-02-15 03:20:00,
2013-02-14 21:30:00,23.4,14.4,30.23,NNW,346,12.0,12.0,68,0.00,,,0.00,0,Wunderground v.1.15,2013-02-15 03:30:00,
2013-02-14 21:40:00,23.2,14.5,30.23,NNE,15,11.0,11.0,69,0.00,,,0.00,0,Wunderground v.1.15,2013-02-15 03:40:00,
2013-02-14 21:50:00,23.0,15.0,30.24,NNW,340,10.0,12.0,71,0.00,,,0.00,0,Wunderground v.1.15,2013-02-15 03:50:00,
2013-02-14 22:00:00,23.0,14.7,30.24,NNW,332,13.0,15.0,70,0.00,,,0.00,0,Wunderground v.1.15,2013-02-15 04:00:00,
2013-02-14 22:10:00,22.5,13.5,30.25,North,350,13.0,13.0,68,0.00,,,0.00,0,Wunderground v.1.15,2013-02-15 04:10:00,
2013-02-14 22:20:00,22.1,12.8,30.25,North,10,13.0,13.0,67,0.00,,,0.00,0,Wunderground v.1.15,2013-02-15 04:20:00,
2013-02-14 22:30:00,21.6,13.3,30.25,NW,325,10.0,12.0,70,0.00,,,0.00,0,Wunderground v.1.15,2013-02-15 04:30:00,
2013-02-14 22:40:00,21.1,13.8,30.25,North,355,9.0,9.0,73,0.00,,,0.00,0,Wunderground v.1.15,2013-02-15 04:40:00,
2013-02-14 22:50:00,20.8,13.5,30.26,NNW,340,8.0,9.0,73,0.00,,,0.00,0,Wunderground v.1.15,2013-02-15 04:50:00,
2013-02-14 23:00:00,20.6,13.6,30.27,North,351,8.0,8.0,74,0.00,,,0.00,0,Wunderground v.1.15,2013-02-15 05:00:00,
2013-02-14 23:10:00,20.5,13.2,30.27,NNW,337,12.0,12.0,73,0.00,,,0.00,0,Wunderground v.1.15,2013-02-15 05:10:00,
2013-02-14 23:20:00,20.2,12.9,30.27,NNW,337,11.0,11.0,73,0.00,,,0.00,0,Wunderground v.1.15,2013-02-15 05:20:00,
2013-02-14 23:30:00,19.9,12.3,30.28,NW,319,11.0,11.0,72,0.00,,,0.00,0,Wunderground v.1.15,2013-02-15 05:30:00,
2013-02-14 23:40:00,19.6,12.0,30.28,NW,320,9.0,9.0,72,0.00,,,0.00,0,Wunderground v.1.15,2013-02-15 05:40:00,
2013-02-14 23:50:00,19.3,11.7,30.29,NNW,336,9.0,9.0,72,0.00,,,0.00,0,Wunderground v.1.15,2013-02-15 05:50:00,